Temperature
10 9 9 10 11 12 12 11 12 12 14 13 12 13 14 14 14 14 15 16 17 19 20 20 19 19 19 18 18 18 17 17 16 14 14 13 13 13 12 12 11 11 11 11
9 9 11 11 11 12 12 12 12 13 13 13 12 12 13 13 13 15 15 16 17 19 19 20 19 19 19 19 18 18 18 17 16 16 16 15 14 13 13 12 11 11 11 11
9 10 11 11 11 11 11 11 12 12 13 13 13 12 13 13 13 15 16 17 18 19 19 20 20 19 19 19 19 18 18 18 17 17 15 14 13 12 12 11 11 11 11 11
9 10 11 11 11 11 11 12 12 12 12 11 12 11 12 12 13 13 14 16 17 19 19 20 20 20 20 20 19 19 19 18 18 17 15 14 13 13 13 13 12 12 11 11
9 10 10 11 11 11 11 12 12 12 11 11 11 10 11 11 12 13 13 16 18 19 19 19 20 20 20 20 19 19 19 18 18 17 16 15 15 14 14 13 12 12 11 11
8 10 10 11 11 12 12 11 11 11 10 10 10 10 10 11 12 13 14 16 18 19 19 19 19 19 19 19 19 19 19 18 18 17 16 16 15 15 14 13 12 12 11 11
8 8 10 10 10 10 11 10 10 9 9 10 10 10 11 12 12 13 14 16 18 18 19 19 19 19 19 19 19 19 18 18 18 17 16 16 15 15 14 14 13 12 12 11
7 8 9 10 10 10 10 10 10 10 10 9 9 10 11 12 12 14 15 16 17 18 19 19 19 19 19 19 19 19 18 18 17 17 16 15 15 14 14 13 13 12 12 12
6 7 9 10 10 11 10 10 10 10 9 9 9 9 10 11 11 12 13 14 16 18 18 18 19 19 19 19 19 18 18 17 17 16 16 15 14 14 14 13 13 12 12 12
5 6 7 9 10 11 11 10 10 9 9 10 9 9 10 12 13 13 12 13 16 17 18 18 18 19 18 18 18 18 17 17 17 16 15 14 14 13 13 13 12 12 11 11
5 6 6 8 9 9 9 10 9 9 9 9 9 10 11 12 13 14 14 15 16 17 18 18 18 18 18 18 17 17 17 16 16 15 14 14 13 13 12 12 12 11 11 11
5 5 5 7 8 9 9 9 9 9 8 8 9 11 12 12 13 13 14 15 16 17 18 18 18 18 18 17 17 17 16 16 15 15 14 13 13 12 11 11 11 11 10 10
5 5 5 6 7 8 8 8 8 9 8 7 9 11 12 11 12 12 13 14 16 16 17 17 17 17 17 17 17 16 16 15 15 14 13 12 12 11 11 11 11 10 10 10
5 4 5 6 6 6 7 7 8 8 8 8 8 11 12 12 13 12 13 14 15 16 17 17 17 17 17 17 16 16 15 15 14 13 13 12 12 11 11 10 10 10 10 9
4 4 4 5 6 6 7 7 8 8 8 8 9 10 12 12 12 12 13 14 14 15 16 17 17 17 17 16 16 16 15 15 14 13 12 12 11 11 10 10 10 9 9 9
3 3 4 5 6 7 7 8 8 9 9 9 9 9 11 12 12 12 13 13 13 15 16 17 17 17 17 16 16 16 15 15 14 13 12 12 11 10 10 10 9 9 9 9
2 2 4 4 5 6 6 8 9 9 10 10 10 11 10 11 11 12 13 14 15 16 17 17 17 17 17 17 16 16 15 14 13 13 12 11 11 10 10 9 9 9 8 8
2 2 3 4 4 5 7 9 9 9 10 10 10 10 11 11 12 15 15 16 16 16 16 17 17 17 17 16 16 15 14 14 13 12 11 11 10 10 9 9 9 8 8 8
2 2 3 3 4 5 7 7 8 9 9 10 10 10 10 12 12 13 15 16 16 17 17 17 17 17 17 16 15 15 14 13 13 12 11 11 10 10 9 9 9 8 8 7
3 3 3 3 4 6 7 7 8 9 9 9 10 10 10 9 10 12 15 15 16 16 16 16 16 16 16 16 15 14 14 13 13 12 12 11 10 10 9 9 8 8 7 7
2 2 2 3 4 5 7 7 8 8 8 9 9 10 10 9 12 13 14 15 15 16 16 16 16 16 16 15 15 14 14 13 13 12 11 11 10 9 9 8 8 7 7 7
2 3 3 3 4 5 6 6 8 8 9 10 10 10 10 11 12 13 13 14 15 15 15 15 15 15 15 15 15 14 14 13 12 12 11 10 9 9 8 8 7 7 6 6
3 3 3 4 5 6 6 7 9 9 9 10 10 10 10 10 11 12 13 13 14 15 15 15 15 15 15 15 14 14 14 13 12 11 11 10 9 8 8 7 7 6 6 6
2 3 3 3 4 5 6 7 8 9 9 10 10 10 10 10 11 11 12 12 13 14 14 14 14 14 14 14 14 14 13 12 12 11 10 9 9 8 7 7 6 6 6 5
1 2 2 3 4 5 6 7 8 8 9 9 10 10 10 10 10 11 11 12 13 13 13 14 14 14 14 14 13 13 12 12 11 10 10 9 8 7 7 6 6 5 5 5
1 2 2 3 4 4 5 7 7 8 8 9 9 9 10 10 11 11 11 12 12 13 13 13 13 13 13 13 13 12 12 11 11 10 9 8 8 7 7 6 5 5 5 4
Wind_Speed
9 10 17 20 21 13 9 9 9 8 6 9 12 13 14 10 8 11 12 11 13 15 15 13 13 13 13 14 16 18 19 18 16 14 14 13 13 11 10 10 14 16 16 16
9 20 21 15 14 14 12 11 9 5 5 8 8 12 12 11 10 11 13 13 14 13 11 11 12 13 15 17 19 19 20 20 19 17 15 12 10 8 8 7 11 16 16 16
21 13 16 15 15 17 17 16 13 7 2 2 3 9 10 9 8 9 11 12 11 14 15 13 12 13 14 17 19 19 21 21 22 18 11 8 6 5 6 9 10 12 16 16
18 14 14 18 19 18 21 15 11 9 5 6 5 7 9 8 9 11 13 12 13 13 13 12 11 11 14 18 17 19 20 20 20 18 17 17 13 12 13 10 10 10 13 15
14 14 17 20 21 19 10 10 11 10 8 8 5 6 9 6 11 13 13 14 14 14 14 13 13 13 14 15 15 16 17 18 19 20 20 20 15 12 8 7 11 11 10 12
12 9 13 14 12 14 7 6 5 5 6 14 16 11 9 8 12 9 10 12 13 13 12 12 10 9 10 10 12 14 16 17 18 20 20 21 19 14 13 11 13 11 8 8
11 11 8 8 10 11 10 9 8 9 11 12 10 11 12 11 11 12 12 12 12 11 10 10 10 10 10 11 13 14 16 17 18 20 20 20 19 18 18 15 15 12 9 8
10 11 12 9 12 12 17 15 11 10 10 7 7 12 10 11 10 11 12 12 11 11 10 10 10 10 10 11 13 14 16 16 18 19 20 18 17 14 13 13 12 14 12 12
7 8 6 9 7 13 13 14 8 4 4 4 7 7 9 7 9 10 11 11 12 12 10 10 9 9 9 11 12 14 16 15 17 18 17 16 16 15 13 13 11 11 9 9
3 5 5 5 5 10 11 10 7 8 8 8 6 7 7 8 12 12 12 13 14 11 9 9 8 8 8 8 9 11 12 14 14 16 16 14 16 15 13 13 13 12 11 11
2 4 3 6 10 13 9 12 8 7 6 7 6 8 9 13 13 14 16 15 13 12 11 9 7 7 6 7 8 9 10 11 12 14 14 14 14 13 13 13 13 12 11 12
3 3 5 8 7 9 8 10 10 10 7 7 5 9 6 11 11 11 12 11 10 10 7 6 6 6 7 7 8 9 10 11 12 12 12 13 12 12 13 12 12 12 12 12
3 2 3 3 3 4 5 7 9 6 4 6 7 9 3 3 5 6 8 8 7 7 6 5 6 7 7 7 8 8 9 10 10 11 12 12 12 13 13 12 12 12 12 11
5 5 7 9 6 5 10 10 10 7 8 8 11 9 5 5 7 6 6 7 6 6 7 7 6 7 7 7 8 8 8 9 10 11 12 13 13 13 12 11 11 12 12 12
3 6 8 10 9 9 11 14 14 15 13 13 14 14 12 9 9 8 6 6 6 6 7 8 8 8 7 7 8 8 8 9 10 11 12 11 10 10 10 11 11 11 11 11
3 5 6 9 9 10 12 16 19 21 20 18 14 17 12 9 6 6 7 7 8 9 10 9 9 9 9 10 9 9 9 9 10 11 11 10 10 10 10 11 11 11 10 9
4 4 5 7 5 5 12 18 21 20 20 21 23 19 7 9 12 12 11 10 11 11 10 10 11 11 10 10 10 11 10 9 10 10 10 10 11 11 11 11 11 11 10 9
9 7 4 4 4 11 11 9 14 19 21 20 17 11 13 13 12 11 10 11 12 10 9 9 9 9 8 8 8 9 10 10 10 10 10 10 11 11 10 11 11 10 9 9
16 11 5 5 7 9 9 7 12 16 19 18 19 15 11 8 6 9 11 11 13 12 10 10 9 8 8 9 10 11 11 11 11 11 11 11 12 12 11 11 10 8 8 7
13 13 8 6 6 9 9 5 5 8 14 11 14 15 11 8 11 15 9 10 11 9 7 7 7 7 8 9 11 12 12 12 12 12 11 11 11 12 12 11 9 7 7 7
7 9 13 10 7 9 7 2 6 9 10 6 11 14 12 15 17 10 8 9 10 9 8 8 8 8 9 11 12 12 12 12 10 10 10 10 10 10 10 9 7 8 8 8
8 7 10 8 8 10 3 4 8 7 5 5 8 11 12 14 13 8 8 10 9 9 8 9 9 7 7 11 13 12 11 9 10 11 11 10 9 9 9 10 8 8 9 8
7 8 5 8 10 7 5 7 8 4 5 6 6 8 10 11 12 10 10 10 9 10 10 9 10 9 7 9 12 13 10 11 12 12 11 10 10 8 9 10 10 8 7 7
5 4 5 7 11 10 11 11 10 8 8 8 8 7 7 9 10 10 9 9 9 9 10 9 10 10 9 8 9 10 12 13 14 13 11 10 10 9 8 7 8 8 7 7
7 4 6 10 11 10 11 10 10 11 11 10 8 7 7 8 9 9 9 9 9 8 8 10 11 12 11 10 10 11 13 15 14 13 11 10 9 10 8 6 5 6 5 7
10 10 11 12 10 9 14 14 12 12 13 12 9 9 8 7 8 7 8 7 8 9 10 10 10 11 11 11 11 11 13 15 16 13 11 9 9 8 8 8 6 7 6 8
Wind_Direction
193 193 209 208 206 210 196 194 210 216 198 185 217 236 245 239 222 232 235 230 228 230 233 225 216 206 197 193 192 193 194 193 187 189 191 193 197 195 195 195 193 190 188 185
206 219 216 208 206 210 214 218 220 232 203 199 231 248 251 240 226 225 229 230 228 232 238 230 217 204 200 199 197 196 196 193 191 194 195 195 189 190 192 187 191 192 189 185
219 221 205 204 205 208 217 217 216 213 176 216 257 277 256 255 232 234 230 230 229 226 230 228 216 209 203 203 200 199 197 194 194 191 181 166 152 149 177 192 196 194 190 186
226 227 202 204 210 204 223 215 208 210 210 241 206 261 262 246 254 243 238 233 234 233 230 228 219 212 208 208 202 200 196 195 192 185 183 182 188 194 196 192 191 186 188 186
217 206 206 212 210 202 212 189 197 211 219 244 225 241 267 239 246 246 238 234 233 233 229 228 222 216 211 205 198 197 193 193 190 188 189 190 195 196 181 171 177 183 186 185
237 222 208 214 209 198 179 152 174 203 217 240 226 221 260 221 222 235 236 232 231 231 228 228 225 213 209 198 192 190 190 192 190 189 191 193 194 183 173 177 184 186 185 185
226 230 215 187 186 191 178 171 191 203 215 235 206 212 244 224 215 217 229 234 231 228 224 225 220 209 202 193 190 188 188 191 190 190 193 196 195 188 186 185 186 184 183 189
208 220 204 194 193 191 193 188 196 199 205 228 187 219 241 228 224 225 231 234 231 225 221 222 219 210 203 196 189 187 189 191 189 191 195 195 192 191 193 187 185 187 192 192
208 229 211 210 187 176 187 201 199 177 177 200 220 250 283 244 235 231 232 230 230 227 222 221 218 208 201 193 191 189 189 189 189 191 192 192 191 191 190 185 182 187 185 180
203 235 226 200 174 193 189 172 173 195 190 215 234 230 228 216 217 220 224 227 231 227 222 220 215 207 200 193 188 184 186 189 187 188 190 192 192 191 186 181 184 184 179 172
201 220 224 190 195 190 175 185 184 188 202 192 221 246 216 204 205 212 220 222 221 219 217 213 206 196 184 175 174 178 181 181 182 185 186 186 187 185 180 183 185 183 176 172
236 213 231 230 237 207 191 184 181 194 206 196 207 253 238 211 215 214 221 222 218 216 209 200 190 176 173 175 175 177 179 180 183 182 181 183 181 178 180 183 182 178 176 176
266 222 230 245 222 191 198 188 195 193 168 184 201 249 252 217 238 237 233 229 220 209 199 188 181 182 182 179 177 177 179 180 177 175 176 178 178 180 182 181 177 175 174 173
257 223 215 221 233 218 223 228 208 189 209 216 220 232 240 225 235 242 237 229 216 206 198 190 191 192 187 180 177 176 176 173 170 171 175 180 181 181 179 174 171 171 171 171
224 237 240 256 257 240 241 226 216 214 215 218 229 229 231 221 226 233 232 218 205 207 203 200 198 194 186 181 179 175 172 168 167 170 176 181 175 169 165 165 166 165 167 171
238 235 244 258 248 237 246 228 219 222 222 227 234 241 233 222 218 227 221 204 210 216 213 206 200 193 191 188 182 175 172 169 167 171 175 168 162 161 162 163 161 161 163 164
228 227 224 243 260 267 242 217 212 218 221 218 229 234 213 207 215 222 224 217 216 218 213 207 203 200 196 189 179 176 170 161 164 167 165 162 162 163 163 160 159 163 165 161
223 225 235 235 215 229 238 206 209 222 229 224 231 225 213 217 221 223 213 213 224 222 215 213 205 199 190 175 167 157 154 160 164 164 163 162 161 160 158 158 162 163 161 164
212 210 219 216 220 254 272 227 204 213 236 228 230 231 225 219 221 244 223 212 218 216 211 209 200 186 170 168 161 152 156 161 165 169 168 166 162 159 158 161 162 158 156 159
203 200 209 216 220 231 243 234 216 200 244 237 226 229 218 175 218 238 220 212 220 214 202 191 176 164 165 167 156 155 162 167 176 175 168 162 160 160 162 162 155 149 151 153
184 196 212 222 233 255 263 237 141 187 241 255 225 227 210 205 225 237 201 209 215 204 194 178 166 172 175 161 156 161 166 178 173 156 149 151 154 155 152 146 143 142 139 137
192 197 204 210 227 245 245 145 182 233 276 273 244 232 223 229 235 226 206 207 202 192 186 174 167 172 162 158 158 163 174 164 144 142 144 146 144 142 140 137 136 138 139 138
208 202 199 211 231 268 243 242 250 264 272 271 263 259 238 237 235 226 220 210 199 190 181 175 168 160 158 164 163 165 162 145 141 139 141 140 135 134 139 141 140 138 139 142
247 227 219 241 257 267 270 276 284 281 277 280 275 269 246 243 237 226 218 210 202 189 176 166 157 158 164 164 159 153 145 143 139 139 139 139 138 134 132 135 142 144 149 148
247 246 240 252 268 284 273 267 278 289 293 291 289 275 250 240 239 223 215 206 197 185 169 163 164 164 162 153 146 143 144 141 136 136 137 136 136 137 131 124 132 143 156 163
230 229 236 251 253 255 270 275 277 280 282 280 282 286 277 248 236 225 214 205 187 174 162 158 156 152 150 145 143 145 146 142 138 138 139 139 138 135 131 124 104 95 119 134
Height
1431 1435 1433 1431 1433 1436 1441 1445 1445 1443 1440 1444 1445 1444 1439 1438 1440 1440 1440 1441 1443 1444 1448 1451 1454 1458 1461 1464 1468 1472 1476 1480 1484 1488 1491 1495 1499 1503 1507 1510 1514 1518 1521 1524
1428 1424 1420 1426 1431 1434 1437 1441 1442 1440 1438 1440 1442 1441 1435 1433 1433 1433 1433 1434 1435 1438 1440 1444 1447 1450 1453 1457 1460 1464 1468 1472 1476 1480 1485 1489 1493 1497 1502 1506 1510 1513 1517 1520
1417 1412 1416 1422 1427 1431 1432 1435 1438 1439 1437 1437 1440 1439 1433 1426 1426 1425 1426 1426 1428 1430 1433 1436 1439 1442 1445 1448 1452 1456 1460 1465 1469 1474 1479 1484 1489 1493 1497 1500 1504 1508 1512 1515
1412 1410 1411 1415 1419 1423 1425 1426 1432 1436 1440 1444 1442 1446 1431 1425 1422 1420 1419 1419 1420 1423 1425 1428 1431 1434 1437 1441 1445 1449 1453 1457 1462 1467 1471 1476 1479 1483 1487 1493 1498 1503 1507 1511
1402 1402 1405 1406 1408 1414 1418 1421 1428 1433 1438 1443 1442 1445 1431 1422 1419 1413 1411 1411 1413 1415 1418 1420 1424 1427 1430 1434 1437 1441 1445 1450 1455 1459 1464 1468 1473 1478 1483 1488 1493 1497 1502 1506
1398 1397 1398 1399 1403 1409 1414 1421 1427 1432 1438 1441 1435 1441 1428 1419 1410 1406 1404 1404 1405 1408 1411 1413 1416 1419 1422 1426 1430 1434 1438 1442 1447 1452 1457 1461 1466 1471 1476 1481 1486 1491 1496 1500
1395 1394 1393 1394 1402 1406 1410 1420 1430 1434 1435 1429 1424 1429 1414 1403 1399 1398 1398 1398 1399 1402 1404 1406 1409 1412 1415 1418 1422 1426 1431 1435 1440 1445 1450 1455 1460 1465 1470 1475 1480 1485 1489 1494
1394 1391 1388 1388 1391 1397 1402 1409 1416 1420 1423 1423 1422 1418 1402 1392 1390 1390 1391 1392 1394 1396 1398 1400 1403 1406 1409 1413 1416 1420 1424 1428 1433 1438 1443 1449 1454 1459 1464 1470 1474 1479 1483 1488
1392 1388 1383 1382 1383 1389 1397 1402 1403 1411 1416 1419 1418 1410 1397 1387 1386 1386 1386 1387 1387 1389 1392 1395 1398 1401 1404 1407 1411 1414 1418 1423 1427 1432 1437 1442 1448 1453 1458 1464 1469 1474 1479 1483
1391 1391 1383 1380 1381 1382 1386 1393 1402 1407 1410 1411 1408 1407 1394 1383 1380 1380 1381 1380 1381 1384 1387 1390 1393 1396 1399 1402 1406 1410 1413 1417 1422 1426 1431 1436 1442 1448 1453 1458 1463 1468 1473 1478
1389 1391 1384 1380 1377 1378 1385 1390 1392 1399 1401 1402 1404 1395 1375 1372 1370 1372 1372 1372 1375 1378 1381 1385 1389 1392 1395 1398 1402 1405 1409 1413 1417 1421 1426 1431 1437 1442 1448 1453 1458 1463 1468 1472
1388 1387 1385 1379 1373 1373 1376 1381 1386 1392 1397 1396 1395 1385 1363 1364 1363 1364 1366 1368 1371 1374 1378 1382 1385 1389 1392 1395 1398 1401 1405 1409 1413 1417 1422 1427 1432 1437 1443 1448 1453 1458 1463 1467
1388 1387 1386 1380 1378 1376 1376 1378 1381 1384 1391 1395 1393 1381 1361 1362 1363 1363 1364 1366 1368 1372 1375 1378 1382 1385 1388 1391 1395 1398 1401 1405 1409 1413 1418 1422 1427 1432 1438 1443 1448 1453 1458 1462
1385 1384 1383 1379 1373 1374 1375 1376 1377 1383 1384 1387 1382 1371 1362 1361 1361 1361 1362 1363 1366 1369 1372 1375 1378 1382 1385 1389 1392 1395 1398 1402 1406 1410 1414 1418 1423 1428 1433 1439 1443 1448 1453 1457
1383 1381 1378 1374 1370 1371 1369 1369 1372 1374 1373 1377 1370 1367 1359 1358 1359 1359 1359 1361 1364 1366 1369 1372 1375 1379 1382 1386 1389 1392 1395 1399 1402 1406 1410 1415 1420 1425 1430 1434 1439 1444 1448 1453
1382 1379 1376 1372 1366 1365 1363 1361 1363 1363 1363 1364 1364 1359 1351 1353 1355 1357 1357 1359 1361 1363 1365 1369 1372 1376 1379 1382 1386 1389 1392 1396 1399 1403 1407 1412 1416 1421 1425 1430 1435 1440 1444 1448
1381 1379 1375 1370 1365 1361 1359 1349 1350 1351 1348 1350 1350 1344 1348 1350 1351 1351 1353 1355 1356 1359 1362 1365 1368 1372 1375 1379 1382 1386 1389 1393 1396 1400 1404 1408 1413 1417 1422 1426 1431 1435 1440 1444
1376 1376 1374 1368 1366 1363 1343 1335 1337 1339 1337 1338 1338 1338 1341 1342 1344 1346 1349 1351 1352 1355 1358 1361 1365 1368 1372 1376 1379 1383 1386 1390 1393 1397 1401 1405 1409 1414 1418 1423 1427 1431 1436 1440
1365 1370 1371 1366 1360 1350 1337 1332 1331 1334 1330 1329 1331 1333 1336 1338 1342 1341 1342 1345 1348 1351 1354 1358 1361 1365 1369 1372 1376 1379 1383 1387 1390 1394 1398 1402 1406 1410 1414 1419 1423 1427 1432 1436
1356 1361 1365 1361 1355 1343 1327 1324 1323 1329 1328 1321 1324 1326 1331 1336 1341 1332 1335 1340 1343 1347 1350 1354 1357 1361 1365 1369 1372 1376 1379 1383 1386 1390 1395 1399 1403 1407 1411 1416 1420 1424 1428 1432
1354 1357 1358 1354 1348 1334 1322 1320 1320 1332 1322 1316 1317 1319 1323 1326 1324 1325 1330 1334 1337 1341 1345 1349 1353 1356 1360 1364 1368 1372 1375 1379 1384 1388 1392 1396 1401 1405 1409 1413 1417 1421 1425 1428
1346 1347 1348 1348 1344 1333 1318 1319 1320 1316 1312 1311 1310 1311 1314 1315 1317 1321 1324 1327 1330 1334 1339 1343 1347 1351 1355 1359 1363 1367 1371 1376 1381 1385 1389 1393 1398 1402 1406 1410 1414 1418 1422 1425
1338 1337 1336 1334 1327 1317 1314 1313 1311 1311 1310 1308 1307 1307 1309 1310 1311 1314 1317 1320 1323 1328 1332 1337 1342 1346 1350 1355 1359 1363 1368 1373 1377 1382 1386 1391 1395 1400 1404 1407 1411 1415 1418 1421
1334 1331 1330 1327 1318 1314 1311 1309 1308 1308 1307 1306 1305 1305 1304 1304 1304 1307 1310 1313 1316 1320 1326 1331 1336 1340 1345 1350 1355 1360 1365 1369 1374 1379 1383 1388 1392 1397 1401 1405 1408 1411 1414 1417
1331 1329 1326 1320 1314 1311 1305 1305 1305 1305 1304 1302 1301 1300 1299 1299 1299 1300 1302 1305 1309 1313 1319 1325 1330 1335 1340 1345 1351 1356 1361 1366 1371 1376 1381 1385 1390 1394 1398 1402 1406 1409 1412 1415
1321 1323 1321 1313 1308 1309 1303 1301 1302 1301 1299 1298 1296 1294 1293 1294 1293 1294 1296 1299 1303 1308 1313 1319 1325 1330 1336 1342 1347 1353 1358 1363 1367 1372 1378 1382 1387 1392 1396 1399 1403 1406 1410 1412